BEIDOU-2 IGSO-3

Last updated on Fri Sep 12 2025 00:02:46 GMT+0000 (Coordinated Universal Time)

1 37384U 11013A 25253.89216194 -.00000168 00000+0 00000+0 0 9992 2 37384 62.0196 42.7988 0036015 179.1356 195.1033 1.00292863 52860
UTC large
Height (km)
Speed (km/s)
/
Latitude / Longitude
Inclination (degrees)
Orbital Period (minutes)
Azimuth
Elevation
Range (km)
Doppler Factor

Next 0 passes for location: London (51.5072 / 0.1276)

Sorry there are no passes over London.